| time (UTC) | temp C | wind direction | speed KPH | gust KPH | rain 1hr cm | rain 24hr cm | rain mn cm | humidity % | barometer mb |
| 20260505173507 | 11 | 303 | 6.4 | 20.9 | 0.00 | 0.00 | 0.00 | 35 | 1009.3 |
| 20260505173014 | 11 | 255 | 8.0 | 20.9 | 0.00 | 0.00 | 0.00 | 33 | 1009.3 |
| 20260505172505 | 11 | 287 | 6.4 | 17.7 | 0.00 | 0.00 | 0.00 | 33 | 1009.2 |
| 20260505172008 | 11 | 222 | 9.7 | 19.3 | 0.00 | 0.00 | 0.00 | 36 | 1009.3 |
| 20260505171513 | 11 | 229 | 9.7 | 19.3 | 0.00 | 0.00 | 0.00 | 32 | 1009.4 |
| 20260505171006 | 11 | 195 | 9.7 | 17.7 | 0.00 | 0.00 | 0.00 | 34 | 1009.3 |
| 20260505170508 | 11 | 257 | 6.4 | 17.7 | 0.00 | 0.00 | 0.00 | 33 | 1009.2 |
| 20260505170011 | 11 | 295 | 9.7 | 17.7 | 0.00 | 0.00 | 0.00 | 29 | 1009.0 |
| 20260505165506 | 11 | 266 | 9.7 | 17.7 | 0.00 | 0.00 | 0.00 | 29 | 1009.0 |
| 20260505165006 | 11 | 257 | 9.7 | 19.3 | 0.00 | 0.00 | 0.00 | 29 | 1009.0 |
| 20260505164512 | 11 | 233 | 9.7 | 19.3 | 0.00 | 0.00 | 0.00 | 30 | 1008.9 |
| 20260505164006 | 11 | 178 | 9.7 | 19.3 | 0.00 | 0.00 | 0.00 | 30 | 1009.0 |
| 20260505163507 | 11 | 245 | 8.0 | 19.3 | 0.00 | 0.00 | 0.00 | 28 | 1009.0 |
| 20260505163016 | 11 | 285 | 3.2 | 19.3 | 0.00 | 0.00 | 0.00 | 31 | 1009.1 |
| 20260505162505 | 10 | 205 | 9.7 | 19.3 | 0.00 | 0.00 | 0.00 | 29 | 1009.3 |
| 20260505162006 | 10 | 205 | 9.7 | 19.3 | 0.00 | 0.00 | 0.00 | 32 | 1009.3 |
| 20260505161516 | 10 | 273 | 6.4 | 17.7 | 0.00 | 0.00 | 0.00 | 39 | 1009.3 |
| 20260505161006 | 10 | 216 | 6.4 | 24.1 | 0.00 | 0.00 | 0.00 | 34 | 1009.2 |
| 20260505160510 | 10 | 236 | 9.7 | 24.1 | 0.00 | 0.00 | 0.00 | 39 | 1009.2 |
| 20260505153008 | 9 | 207 | 14.5 | 20.9 | 0.00 | 0.00 | 0.00 | 38 | 1008.7 |
| 20260505152505 | 9 | 214 | 11.3 | 17.7 | 0.00 | 0.00 | 0.00 | 38 | 1008.9 |
| 20260505152005 | 9 | 254 | 9.7 | 17.7 | 0.00 | 0.00 | 0.00 | 39 | 1009.0 |
| 20260505151507 | 9 | 210 | 8.0 | 19.3 | 0.00 | 0.00 | 0.00 | 37 | 1009.0 |
| 20260505151009 | 9 | 270 | 11.3 | 19.3 | 0.00 | 0.00 | 0.00 | 41 | 1009.0 |
| 20260505150503 | 9 | 257 | 8.0 | 19.3 | 0.00 | 0.00 | 0.00 | 34 | 1009.2 |
| 20260505140507 | 8 | 255 | 8.0 | 22.5 | 0.00 | 0.00 | 0.00 | 45 | 1009.4 |
| 20260505125008 | 7 | 235 | 3.2 | 9.7 | 0.00 | 0.00 | 0.00 | 50 | 1009.3 |
| 20260505124512 | 7 | 266 | 3.2 | 9.7 | 0.00 | 0.00 | 0.00 | 49 | 1009.2 |
| 20260505124004 | 7 | 248 | 3.2 | 8.0 | 0.00 | 0.00 | 0.00 | 49 | 1009.2 |
| 20260505123508 | 7 | 239 | 3.2 | 11.3 | 0.00 | 0.00 | 0.00 | 47 | 1009.3 |
| 20260505123014 | 7 | 233 | 3.2 | 11.3 | 0.00 | 0.00 | 0.00 | 48 | 1009.4 |
| 20260505122504 | 7 | 238 | 4.8 | 9.7 | 0.00 | 0.00 | 0.00 | 52 | 1009.4 |
| 20260505122007 | 7 | 205 | 3.2 | 9.7 | 0.00 | 0.00 | 0.00 | 50 | 1009.5 |
| 20260505121528 | 7 | 233 | 4.8 | 9.7 | 0.00 | 0.00 | 0.00 | 49 | 1009.6 |
| 20260505121007 | 7 | 203 | 4.8 | 8.0 | 0.00 | 0.00 | 0.00 | 49 | 1009.3 |
| 20260505120504 | 7 | 211 | 3.2 | 8.0 | 0.00 | 0.00 | 0.00 | 52 | 1009.0 |
| 20260505120016 | 7 | 238 | 3.2 | 6.4 | 0.00 | 0.00 | 0.00 | 53 | 1008.7 |
| 20260505115507 | 6 | 250 | 3.2 | 6.4 | 0.00 | 0.00 | 0.00 | 53 | 1008.4 |
| 20260505115009 | 6 | 245 | 3.2 | 6.4 | 0.00 | 0.00 | 0.00 | 53 | 1008.0 |
| 20260505114512 | 6 | 248 | 1.6 | 6.4 | 0.00 | 0.00 | 0.00 | 56 | 1007.8 |
| 20260505114009 | 6 | 251 | 3.2 | 6.4 | 0.00 | 0.00 | 0.00 | 53 | 1007.8 |
| 20260505113509 | 6 | 257 | 1.6 | 3.2 | 0.00 | 0.00 | 0.00 | 53 | 1007.6 |
| 20260505113010 | 6 | 257 | 0.0 | 4.8 | 0.00 | 0.00 | 0.00 | 53 | 1007.4 |
| 20260505112507 | 6 | 249 | 1.6 | 4.8 | 0.00 | 0.00 | 0.00 | 54 | 1007.7 |
| 20260505112007 | 6 | 259 | 0.0 | 3.2 | 0.00 | 0.00 | 0.00 | 56 | 1007.7 |
| 20260505111516 | 6 | 259 | 0.0 | 3.2 | 0.00 | 0.00 | 0.00 | 55 | 1007.8 |
| 20260505111006 | 6 | 259 | 0.0 | 3.2 | 0.00 | 0.00 | 0.00 | 53 | 1008.0 |
| 20260505110508 | 6 | 262 | 0.0 | 4.8 | 0.00 | 0.00 | 0.00 | 53 | 1007.9 |
| 20260505102008 | 6 | 286 | 1.6 | 6.4 | 0.00 | 0.00 | 0.00 | 46 | 1007.4 |
| 20260505101513 | 6 | 307 | 1.6 | 6.4 | 0.00 | 0.00 | 0.00 | 46 | 1007.4 |
| 20260505101008 | 6 | 302 | 0.0 | 9.7 | 0.00 | 0.00 | 0.00 | 48 | 1007.3 |
| 20260505100507 | 6 | 307 | 1.6 | 9.7 | 0.00 | 0.00 | 0.00 | 46 | 1007.4 |
| 20260505100031 | 7 | 302 | 3.2 | 11.3 | 0.00 | 0.00 | 0.00 | 45 | 1007.3 |
| 20260505095508 | 7 | 292 | 1.6 | 11.3 | 0.00 | 0.00 | 0.00 | 45 | 1007.1 |
| 20260505095008 | 7 | 300 | 0.0 | 8.0 | 0.00 | 0.00 | 0.00 | 45 | 1007.0 |
| 20260505094519 | 7 | 308 | 3.2 | 9.7 | 0.00 | 0.00 | 0.00 | 43 | 1007.2 |
| 20260505094006 | 7 | 298 | 1.6 | 9.7 | 0.00 | 0.00 | 0.00 | 44 | 1007.3 |
| 20260505093507 | 7 | 298 | 3.2 | 11.3 | 0.00 | 0.00 | 0.00 | 43 | 1007.3 |
| 20260505093028 | 7 | 215 | 3.2 | 11.3 | 0.00 | 0.00 | 0.00 | 43 | 1007.4 |
| 20260505092505 | 7 | 301 | 3.2 | 8.0 | 0.00 | 0.00 | 0.00 | 43 | 1007.4 |
| 20260505092010 | 7 | 283 | 1.6 | 8.0 | 0.00 | 0.00 | 0.00 | 44 | 1007.5 |
| 20260505091518 | 7 | 295 | 0.0 | 12.9 | 0.00 | 0.00 | 0.00 | 44 | 1007.4 |
| 20260505091009 | 7 | 294 | 1.6 | 12.9 | 0.00 | 0.00 | 0.00 | 44 | 1007.2 |
| 20260505090504 | 7 | 255 | 1.6 | 9.7 | 0.00 | 0.00 | 0.00 | 44 | 1007.1 |
| 20260505090021 | 7 | 328 | 1.6 | 9.7 | 0.00 | 0.00 | 0.00 | 44 | 1006.8 |
| 20260505085507 | 7 | 293 | 1.6 | 9.7 | 0.00 | 0.00 | 0.00 | 45 | 1006.6 |
| 20260505085009 | 7 | 318 | 1.6 | 9.7 | 0.00 | 0.00 | 0.00 | 45 | 1006.5 |
| 20260505084522 | 7 | 13 | 1.6 | 8.0 | 0.00 | 0.00 | 0.00 | 44 | 1006.4 |
| 20260505084011 | 7 | 25 | 1.6 | 12.9 | 0.00 | 0.00 | 0.00 | 44 | 1006.4 |
| 20260505083519 | 7 | 301 | 3.2 | 12.9 | 0.00 | 0.00 | 0.00 | 44 | 1006.4 |
| 20260505083018 | 7 | 330 | 0.0 | 9.7 | 0.00 | 0.00 | 0.00 | 45 | 1006.3 |
| 20260505082506 | 7 | 324 | 1.6 | 11.3 | 0.00 | 0.00 | 0.00 | 45 | 1006.0 |
| 20260505082007 | 7 | 55 | 1.6 | 11.3 | 0.00 | 0.00 | 0.00 | 44 | 1005.8 |
| 20260505081523 | 7 | 59 | 1.6 | 6.4 | 0.00 | 0.00 | 0.00 | 45 | 1005.7 |
| 20260505081009 | 7 | 307 | 1.6 | 8.0 | 0.00 | 0.00 | 0.00 | 44 | 1005.5 |
| 20260505080508 | 7 | 270 | 0.0 | 9.7 | 0.00 | 0.00 | 0.00 | 45 | 1005.3 |
| 20260505080027 | 7 | 258 | 1.6 | 11.3 | 0.00 | 0.00 | 0.00 | 45 | 1005.2 |
| 20260505075504 | 8 | 338 | 1.6 | 11.3 | 0.00 | 0.00 | 0.00 | 45 | 1005.2 |
| 20260505075009 | 8 | 51 | 4.8 | 11.3 | 0.00 | 0.00 | 0.00 | 44 | 1005.0 |
| 20260505074526 | 8 | 46 | 1.6 | 9.7 | 0.00 | 0.00 | 0.00 | 45 | 1004.9 |
| 20260505074007 | 8 | 79 | 1.6 | 11.3 | 0.00 | 0.00 | 0.00 | 45 | 1004.9 |
| 20260505073505 | 8 | 23 | 3.2 | 11.3 | 0.00 | 0.00 | 0.00 | 46 | 1004.9 |
| 20260505073026 | 8 | 217 | 1.6 | 9.7 | 0.00 | 0.00 | 0.00 | 45 | 1005.1 |
| 20260505072508 | 8 | 49 | 1.6 | 14.5 | 0.00 | 0.00 | 0.00 | 47 | 1005.1 |
| 20260505072006 | 8 | 56 | 3.2 | 14.5 | 0.00 | 0.00 | 0.00 | 46 | 1005.0 |
| 20260505071530 | 8 | 293 | 0.0 | 8.0 | 0.00 | 0.00 | 0.00 | 46 | 1005.0 |
| 20260505071013 | 9 | 30 | 1.6 | 12.9 | 0.00 | 0.00 | 0.00 | 45 | 1005.1 |
| 20260505070511 | 9 | 353 | 1.6 | 12.9 | 0.00 | 0.00 | 0.00 | 45 | 1005.0 |
| 20260505070016 | 9 | 170 | 3.2 | 12.9 | 0.00 | 0.00 | 0.00 | 45 | 1004.8 |
| 20260505065510 | 10 | 81 | 3.2 | 9.7 | 0.00 | 0.00 | 0.00 | 45 | 1004.7 |
| 20260505065012 | 10 | 108 | 1.6 | 11.3 | 0.00 | 0.00 | 0.00 | 45 | 1004.5 |
| 20260505064523 | 10 | 150 | 3.2 | 11.3 | 0.00 | 0.00 | 0.00 | 47 | 1004.2 |
| 20260505064003 | 10 | 58 | 1.6 | 9.7 | 0.00 | 0.00 | 0.00 | 46 | 1004.0 |
| 20260505063504 | 10 | 4 | 0.0 | 8.0 | 0.00 | 0.00 | 0.00 | 45 | 1004.0 |
| 20260505063030 | 10 | 51 | 0.0 | 9.7 | 0.00 | 0.00 | 0.00 | 44 | 1003.9 |
| 20260505062508 | 10 | 300 | 0.0 | 14.5 | 0.00 | 0.00 | 0.00 | 43 | 1003.9 |
| 20260505062004 | 11 | 221 | 6.4 | 17.7 | 0.00 | 0.00 | 0.00 | 42 | 1003.9 |
| 20260505061507 | 11 | 309 | 3.2 | 17.7 | 0.00 | 0.00 | 0.00 | 42 | 1004.0 |
| 20260505061006 | 11 | 311 | 3.2 | 12.9 | 0.00 | 0.00 | 0.00 | 42 | 1004.0 |
| 20260505060507 | 11 | 108 | 3.2 | 12.9 | 0.00 | 0.00 | 0.00 | 42 | 1003.9 |
| 20260505060006 | 11 | 293 | 4.8 | 12.9 | 0.00 | 0.00 | 0.00 | 41 | 1003.9 |
| 20260505055506 | 11 | 290 | 3.2 | 14.5 | 0.00 | 0.00 | 0.00 | 44 | 1004.0 |
| 20260505055011 | 11 | 303 | 4.8 | 14.5 | 0.00 | 0.00 | 0.00 | 43 | 1004.0 |
| 20260505054504 | 11 | 318 | 3.2 | 11.3 | 0.00 | 0.00 | 0.00 | 43 | 1003.9 |
| 20260505054004 | 12 | 193 | 1.6 | 16.1 | 0.00 | 0.00 | 0.00 | 43 | 1003.8 |
| 20260505053507 | 12 | 274 | 4.8 | 16.1 | 0.00 | 0.00 | 0.00 | 42 | 1003.8 |
| 20260505053020 | 12 | 345 | 6.4 | 14.5 | 0.00 | 0.00 | 0.00 | 41 | 1003.6 |
| 20260505052504 | 12 | 314 | 6.4 | 24.1 | 0.00 | 0.00 | 0.00 | 41 | 1003.5 |
| 20260505052006 | 12 | 290 | 8.0 | 24.1 | 0.00 | 0.00 | 0.00 | 41 | 1003.2 |
| 20260505051533 | 12 | 309 | 6.4 | 22.5 | 0.00 | 0.00 | 0.00 | 40 | 1003.2 |
| 20260505051004 | 12 | 318 | 8.0 | 22.5 | 0.00 | 0.00 | 0.00 | 39 | 1003.0 |
| 20260505050504 | 13 | 268 | 6.4 | 22.5 | 0.00 | 0.00 | 0.00 | 38 | 1003.1 |
| 20260505041505 | 14 | 309 | 8.0 | 17.7 | 0.00 | 0.00 | 0.00 | 33 | 1001.9 |
| 20260505041007 | 14 | 236 | 8.0 | 14.5 | 0.00 | 0.00 | 0.00 | 31 | 1001.9 |
| 20260505040506 | 15 | 281 | 6.4 | 14.5 | 0.00 | 0.00 | 0.00 | 31 | 1001.9 |
| 20260505040024 | 15 | 278 | 4.8 | 12.9 | 0.00 | 0.00 | 0.00 | 30 | 1002.0 |
| 20260505035505 | 15 | 259 | 6.4 | 20.9 | 0.00 | 0.00 | 0.00 | 29 | 1002.1 |
| 20260505035007 | 15 | 294 | 6.4 | 20.9 | 0.00 | 0.00 | 0.00 | 28 | 1002.1 |
| 20260505034520 | 15 | 316 | 6.4 | 17.7 | 0.00 | 0.00 | 0.00 | 29 | 1002.2 |
| 20260505034003 | 15 | 264 | 8.0 | 19.3 | 0.00 | 0.00 | 0.00 | 29 | 1002.1 |
| 20260505033503 | 15 | 248 | 9.7 | 19.3 | 0.00 | 0.00 | 0.00 | 31 | 1002.1 |
| 20260505033018 | 15 | 236 | 4.8 | 14.5 | 0.00 | 0.00 | 0.00 | 33 | 1001.9 |
| 20260505032512 | 15 | 252 | 8.0 | 17.7 | 0.00 | 0.00 | 0.00 | 30 | 1001.8 |
| 20260505032005 | 15 | 200 | 6.4 | 17.7 | 0.00 | 0.00 | 0.00 | 30 | 1001.7 |
| 20260505031526 | 16 | 267 | 4.8 | 16.1 | 0.00 | 0.00 | 0.00 | 30 | 1001.4 |
| 20260505031008 | 16 | 238 | 8.0 | 16.1 | 0.00 | 0.00 | 0.00 | 28 | 1001.3 |
| 20260505030504 | 16 | 193 | 6.4 | 16.1 | 0.00 | 0.00 | 0.00 | 29 | 1001.2 |
| 20260505030012 | 16 | 276 | 6.4 | 16.1 | 0.00 | 0.00 | 0.00 | 28 | 1001.0 |
| 20260505025514 | 16 | 242 | 6.4 | 14.5 | 0.00 | 0.00 | 0.00 | 29 | 1000.9 |
| 20260505025010 | 16 | 231 | 6.4 | 19.3 | 0.00 | 0.00 | 0.00 | 29 | 1000.8 |
| 20260505024506 | 16 | 277 | 8.0 | 19.3 | 0.00 | 0.00 | 0.00 | 27 | 1000.5 |
| 20260505024006 | 16 | 315 | 8.0 | 16.1 | 0.00 | 0.00 | 0.00 | 28 | 1000.6 |
| 20260505023508 | 16 | 238 | 8.0 | 17.7 | 0.00 | 0.00 | 0.00 | 28 | 1000.7 |
| 20260505023024 | 16 | 250 | 8.0 | 17.7 | 0.00 | 0.00 | 0.00 | 28 | 1000.7 |
| 20260505022503 | 16 | 254 | 6.4 | 14.5 | 0.00 | 0.00 | 0.00 | 30 | 1000.8 |
| 20260505022007 | 17 | 264 | 4.8 | 16.1 | 0.00 | 0.00 | 0.00 | 29 | 1000.7 |
| 20260505021524 | 17 | 264 | 9.7 | 20.9 | 0.00 | 0.00 | 0.00 | 28 | 1000.6 |
| 20260505021004 | 17 | 263 | 8.0 | 20.9 | 0.00 | 0.00 | 0.00 | 27 | 1000.5 |
| 20260505020507 | 17 | 309 | 9.7 | 20.9 | 0.00 | 0.00 | 0.00 | 28 | 1000.4 |
| 20260505020019 | 17 | 333 | 9.7 | 20.9 | 0.00 | 0.00 | 0.00 | 29 | 1000.4 |
| 20260505015509 | 17 | 275 | 6.4 | 17.7 | 0.00 | 0.00 | 0.00 | 30 | 1000.2 |
| 20260505015005 | 17 | 200 | 6.4 | 17.7 | 0.00 | 0.00 | 0.00 | 31 | 1000.1 |
| 20260505014521 | 18 | 261 | 8.0 | 17.7 | 0.00 | 0.00 | 0.00 | 29 | 999.8 |
| 20260505014007 | 18 | 304 | 8.0 | 17.7 | 0.00 | 0.00 | 0.00 | 29 | 999.5 |
| 20260505013504 | 18 | 239 | 9.7 | 17.7 | 0.00 | 0.00 | 0.00 | 29 | 999.3 |
| 20260505013024 | 18 | 275 | 9.7 | 17.7 | 0.00 | 0.00 | 0.00 | 31 | 999.1 |
| 20260505012507 | 18 | 15 | 8.0 | 17.7 | 0.00 | 0.00 | 0.00 | 32 | 998.8 |
| 20260505012010 | 18 | 321 | 6.4 | 17.7 | 0.00 | 0.00 | 0.00 | 32 | 998.6 |
| 20260505011513 | 19 | 313 | 4.8 | 14.5 | 0.00 | 0.00 | 0.00 | 32 | 998.4 |
| 20260505011009 | 19 | 259 | 1.6 | 16.1 | 0.00 | 0.00 | 0.00 | 33 | 998.2 |
| 20260505010506 | 20 | 286 | 4.8 | 16.1 | 0.00 | 0.00 | 0.00 | 33 | 998.2 |
| 20260505010014 | 20 | 306 | 3.2 | 17.7 | 0.00 | 0.00 | 0.00 | 33 | 998.1 |
| 20260505005507 | 20 | 274 | 8.0 | 17.7 | 0.00 | 0.00 | 0.00 | 32 | 998.1 |
| 20260505005008 | 20 | 304 | 3.2 | 12.9 | 0.00 | 0.00 | 0.00 | 33 | 997.9 |
| 20260505004526 | 20 | 331 | 4.8 | 20.9 | 0.00 | 0.00 | 0.00 | 32 | 997.6 |
| 20260505004007 | 20 | 285 | 6.4 | 20.9 | 0.00 | 0.00 | 0.00 | 32 | 997.5 |
| 20260505003510 | 21 | 297 | 8.0 | 29.0 | 0.00 | 0.00 | 0.00 | 31 | 997.3 |
| 20260505003029 | 21 | 280 | 9.7 | 29.0 | 0.00 | 0.00 | 0.00 | 30 | 997.2 |
| 20260505002511 | 21 | 288 | 6.4 | 27.4 | 0.00 | 0.00 | 0.00 | 30 | 997.1 |
| 20260505002007 | 21 | 265 | 11.3 | 29.0 | 0.00 | 0.00 | 0.00 | 30 | 997.1 |
| 20260505001521 | 22 | 284 | 6.4 | 29.0 | 0.00 | 0.00 | 0.00 | 31 | 997.2 |
| 20260505001010 | 22 | 288 | 11.3 | 25.7 | 0.00 | 0.00 | 0.00 | 30 | 997.2 |
| 20260505000507 | 22 | 290 | 11.3 | 25.7 | 0.00 | 0.00 | 0.00 | 29 | 997.1 |
| 20260505000020 | 23 | 269 | 3.2 | 17.7 | 0.00 | 0.00 | 0.00 | 31 | 996.9 |
| 20260504235506 | 23 | 304 | 11.3 | 17.7 | 0.00 | 0.00 | 0.00 | 29 | 996.8 |
| 20260504235008 | 24 | 308 | 8.0 | 16.1 | 0.00 | 0.00 | 0.00 | 27 | 996.7 |
| 20260504234518 | 24 | 286 | 6.4 | 14.5 | 0.00 | 0.00 | 0.00 | 27 | 996.6 |
| 20260504234010 | 24 | 245 | 6.4 | 14.5 | 0.00 | 0.00 | 0.00 | 27 | 996.4 |
| 20260504233512 | 24 | 244 | 6.4 | 14.5 | 0.00 | 0.00 | 0.00 | 26 | 996.5 |
| 20260504233012 | 24 | 237 | 8.0 | 19.3 | 0.00 | 0.00 | 0.00 | 27 | 996.4 |
| 20260504232510 | 24 | 202 | 9.7 | 19.3 | 0.00 | 0.00 | 0.00 | 26 | 996.4 |
| 20260504232011 | 24 | 241 | 8.0 | 17.7 | 0.00 | 0.00 | 0.00 | 27 | 996.5 |
| 20260504231529 | 24 | 226 | 8.0 | 17.7 | 0.00 | 0.00 | 0.00 | 26 | 996.5 |
| 20260504231007 | 24 | 244 | 11.3 | 17.7 | 0.00 | 0.00 | 0.00 | 26 | 996.5 |
| 20260504230508 | 24 | 220 | 9.7 | 24.1 | 0.00 | 0.00 | 0.00 | 27 | 996.5 |
| 20260504230025 | 24 | 299 | 12.9 | 24.1 | 0.00 | 0.00 | 0.00 | 25 | 996.6 |
| 20260504225506 | 24 | 203 | 11.3 | 22.5 | 0.00 | 0.00 | 0.00 | 27 | 996.6 |
| 20260504225006 | 24 | 245 | 12.9 | 25.7 | 0.00 | 0.00 | 0.00 | 25 | 996.6 |
| 20260504224531 | 24 | 266 | 16.1 | 25.7 | 0.00 | 0.00 | 0.00 | 25 | 996.6 |
| 20260504224007 | 25 | 201 | 14.5 | 20.9 | 0.00 | 0.00 | 0.00 | 25 | 996.9 |
| 20260504223509 | 24 | 210 | 9.7 | 25.7 | 0.00 | 0.00 | 0.00 | 27 | 996.7 |
| 20260504223025 | 24 | 210 | 14.5 | 25.7 | 0.00 | 0.00 | 0.00 | 26 | 996.7 |
| 20260504222510 | 24 | 234 | 9.7 | 19.3 | 0.00 | 0.00 | 0.00 | 27 | 996.7 |
| 20260504222009 | 24 | 205 | 9.7 | 20.9 | 0.00 | 0.00 | 0.00 | 27 | 996.7 |
| 20260504221519 | 25 | 200 | 11.3 | 27.4 | 0.00 | 0.00 | 0.00 | 26 | 996.7 |
| 20260504221010 | 24 | 214 | 12.9 | 27.4 | 0.00 | 0.00 | 0.00 | 26 | 996.7 |
| 20260504220512 | 24 | 202 | 9.7 | 24.1 | 0.00 | 0.00 | 0.00 | 27 | 996.8 |
| 20260504220017 | 24 | 235 | 12.9 | 22.5 | 0.00 | 0.00 | 0.00 | 27 | 996.8 |
| 20260504215510 | 24 | 191 | 11.3 | 22.5 | 0.00 | 0.00 | 0.00 | 27 | 996.8 |
| 20260504215007 | 24 | 266 | 12.9 | 25.7 | 0.00 | 0.00 | 0.00 | 27 | 996.8 |
| 20260504214538 | 24 | 226 | 16.1 | 25.7 | 0.00 | 0.00 | 0.00 | 27 | 996.9 |
| 20260504214009 | 24 | 218 | 11.3 | 25.7 | 0.00 | 0.00 | 0.00 | 28 | 996.9 |
| 20260504213503 | 24 | 203 | 12.9 | 29.0 | 0.00 | 0.00 | 0.00 | 26 | 996.8 |
| 20260504213010 | 24 | 200 | 14.5 | 29.0 | 0.00 | 0.00 | 0.00 | 25 | 996.9 |
| 20260504212507 | 24 | 207 | 12.9 | 27.4 | 0.00 | 0.00 | 0.00 | 26 | 997.1 |
| 20260504212003 | 24 | 203 | 16.1 | 27.4 | 0.00 | 0.00 | 0.00 | 24 | 997.1 |
| 20260504211506 | 24 | 211 | 11.3 | 24.1 | 0.00 | 0.00 | 0.00 | 25 | 997.3 |
| 20260504211006 | 25 | 226 | 14.5 | 24.1 | 0.00 | 0.00 | 0.00 | 24 | 997.2 |
| 20260504210512 | 25 | 236 | 11.3 | 22.5 | 0.00 | 0.00 | 0.00 | 25 | 997.4 |
| 20260504210009 | 24 | 216 | 11.3 | 29.0 | 0.00 | 0.00 | 0.00 | 25 | 997.4 |
| 20260504205504 | 24 | 242 | 12.9 | 29.0 | 0.00 | 0.00 | 0.00 | 25 | 997.4 |
| 20260504205007 | 24 | 236 | 11.3 | 30.6 | 0.00 | 0.00 | 0.00 | 26 | 997.4 |
| 20260504204510 | 24 | 247 | 11.3 | 30.6 | 0.00 | 0.00 | 0.00 | 25 | 997.4 |
| 20260504204004 | 24 | 252 | 17.7 | 29.0 | 0.00 | 0.00 | 0.00 | 25 | 997.5 |
| 20260504203506 | 24 | 246 | 12.9 | 25.7 | 0.00 | 0.00 | 0.00 | 26 | 997.5 |
| 20260504203022 | 24 | 217 | 14.5 | 25.7 | 0.00 | 0.00 | 0.00 | 25 | 997.5 |
| 20260504202506 | 24 | 217 | 11.3 | 20.9 | 0.00 | 0.00 | 0.00 | 26 | 997.6 |
| 20260504202006 | 24 | 244 | 9.7 | 22.5 | 0.00 | 0.00 | 0.00 | 25 | 997.6 |
| 20260504201516 | 24 | 263 | 11.3 | 22.5 | 0.00 | 0.00 | 0.00 | 27 | 997.7 |
| 20260504201008 | 24 | 190 | 14.5 | 32.2 | 0.00 | 0.00 | 0.00 | 26 | 997.7 |
| 20260504200504 | 23 | 200 | 12.9 | 32.2 | 0.00 | 0.00 | 0.00 | 27 | 997.8 |
| 20260504200019 | 24 | 218 | 20.9 | 32.2 | 0.00 | 0.00 | 0.00 | 25 | 997.8 |
| 20260504195506 | 24 | 209 | 14.5 | 30.6 | 0.00 | 0.00 | 0.00 | 25 | 997.9 |
| 20260504195007 | 23 | 265 | 14.5 | 25.7 | 0.00 | 0.00 | 0.00 | 27 | 998.1 |
| 20260504194512 | 23 | 205 | 14.5 | 25.7 | 0.00 | 0.00 | 0.00 | 26 | 998.1 |
| 20260504194007 | 23 | 226 | 19.3 | 25.7 | 0.00 | 0.00 | 0.00 | 26 | 998.1 |
| 20260504193511 | 23 | 191 | 12.9 | 22.5 | 0.00 | 0.00 | 0.00 | 28 | 998.1 |
| 20260504193008 | 23 | 211 | 8.0 | 27.4 | 0.00 | 0.00 | 0.00 | 26 | 998.1 |
| 20260504192506 | 23 | 203 | 12.9 | 27.4 | 0.00 | 0.00 | 0.00 | 27 | 998.1 |
| 20260504192010 | 23 | 203 | 12.9 | 27.4 | 0.00 | 0.00 | 0.00 | 26 | 998.2 |
| 20260504191507 | 23 | 198 | 17.7 | 30.6 | 0.00 | 0.00 | 0.00 | 25 | 998.2 |
| 20260504191004 | 23 | 139 | 17.7 | 33.8 | 0.00 | 0.00 | 0.00 | 25 | 998.2 |
| 20260504190515 | 23 | 216 | 14.5 | 33.8 | 0.00 | 0.00 | 0.00 | 24 | 998.2 |
| 20260504190028 | 23 | 243 | 14.5 | 33.8 | 0.00 | 0.00 | 0.00 | 25 | 998.2 |
| 20260504185503 | 23 | 239 | 16.1 | 32.2 | 0.00 | 0.00 | 0.00 | 25 | 998.2 |
| 20260504185007 | 23 | 195 | 16.1 | 32.2 | 0.00 | 0.00 | 0.00 | 25 | 998.3 |
| 20260504184531 | 23 | 207 | 14.5 | 29.0 | 0.00 | 0.00 | 0.00 | 25 | 998.4 |
| 20260504184004 | 23 | 206 | 16.1 | 25.7 | 0.00 | 0.00 | 0.00 | 26 | 998.4 |
| 20260504183510 | 23 | 210 | 17.7 | 24.1 | 0.00 | 0.00 | 0.00 | 24 | 998.4 |
| 20260504183025 | 23 | 196 | 16.1 | 27.4 | 0.00 | 0.00 | 0.00 | 25 | 998.3 |
| 20260504182507 | 23 | 220 | 12.9 | 27.4 | 0.00 | 0.00 | 0.00 | 27 | 998.3 |
| 20260504182006 | 22 | 223 | 12.9 | 25.7 | 0.00 | 0.00 | 0.00 | 25 | 998.3 |
| 20260504181513 | 22 | 191 | 8.0 | 22.5 | 0.00 | 0.00 | 0.00 | 26 | 998.4 |
| 20260504181010 | 22 | 188 | 14.5 | 27.4 | 0.00 | 0.00 | 0.00 | 25 | 998.3 |
| 20260504180504 | 22 | 222 | 14.5 | 27.4 | 0.00 | 0.00 | 0.00 | 24 | 998.3 |
| 20260504180012 | 22 | 180 | 12.9 | 27.4 | 0.00 | 0.00 | 0.00 | 24 | 998.4 |
| 20260504175507 | 22 | 224 | 16.1 | 27.4 | 0.00 | 0.00 | 0.00 | 25 | 998.3 |
| 20260504175011 | 22 | 193 | 19.3 | 29.0 | 0.00 | 0.00 | 0.00 | 24 | 998.4 |
| 20260504174508 | 22 | 279 | 17.7 | 29.0 | 0.00 | 0.00 | 0.00 | 25 | 998.5 |
| 20260504174007 | 22 | 211 | 16.1 | 25.7 | 0.00 | 0.00 | 0.00 | 25 | 998.6 |